GFSNE_2pvu_pres_126.txt.gz
Presure
388 364 349 342 352 358 333 349 293 275 226 276 137 171 146 132 136 128 119 122 161 195 162 135 207 213 168 184 167 143 132 176 161 127 135 133 133 140
330 316 335 328 346 322 308 296 277 257 263 260 264 253 228 204 131 127 160 125 125 198 131 132 134 133 144 130 151 150 147 148 140 129 141 136 156 148
285 274 297 257 290 281 290 294 284 274 262 263 271 278 266 276 167 213 135 294 158 203 139 135 188 136 129 135 132 134 125 158 197 146 163 134 130 165
128 142 269 291 255 263 226 273 276 282 278 280 272 203 168 277 274 190 120 120 126 125 147 124 127 163 155 275 187 143 146 140 144 222 142 142 206 138
269 247 124 246 290 267 263 273 185 250 263 244 257 265 270 141 240 240 156 129 158 268 281 276 250 281 168 180 163 267 139 135 206 147 170 186 245 161
255 295 271 258 200 122 208 257 277 265 265 202 213 208 263 242 266 276 256 252 261 230 251 269 226 199 196 205 241 243 216 243 250 264 148 208 248 233
254 259 281 270 294 255 259 227 246 159 159 161 160 222 259 231 153 152 152 179 270 245 253 253 256 215 266 253 258 225 144 259 235 143 258 166 222 230
256 275 354 406 267 300 279 261 258 264 271 267 265 265 279 277 260 261 276 260 263 248 237 238 263 274 332 256 255 295 272 282 277 282 283 279 273 250
261 329 310 336 337 380 398 300 306 272 279 270 252 281 262 262 266 270 268 266 262 262 274 292 305 320 345 347 343 343 340 305 289 273 272 279 277 276
191 335 295 301 402 326 299 251 426 308 287 284 267 266 257 272 276 168 209 258 265 298 305 284 274 304 325 315 319 315 319 341 334 290 283 273 288 282
278 317 317 294 335 385 345 342 350 143 198 316 299 280 270 264 148 129 253 127 261 250 256 266 274 280 292 297 298 303 297 302 312 308 293 267 293 279
294 280 318 318 315 391 352 331 328 326 336 353 422 395 300 302 272 285 252 270 266 260 261 253 252 256 284 300 313 298 280 283 288 283 277 280 285 292
297 275 305 317 309 371 366 334 321 312 306 312 319 330 380 435 370 288 286 285 253 267 263 268 255 252 236 269 278 296 285 237 270 267 276 274 296 286
296 293 285 312 378 360 346 349 326 316 304 298 298 304 312 320 329 373 387 296 296 261 268 273 265 258 256 241 255 280 289 279 282 268 270 267 266 279
291 314 275 294 364 342 329 322 327 322 318 314 311 309 303 315 307 318 324 349 427 363 280 269 273 269 258 251 239 264 280 291 285 274 265 270 265 288
285 309 290 288 357 325 311 306 302 299 299 301 301 303 307 310 310 319 316 323 324 345 413 377 311 286 269 261 250 240 242 278 281 278 275 259 262 255
277 298 294 361 338 310 298 291 290 351 363 433 425 403 393 387 328 316 306 315 317 328 330 354 372 337 299 272 252 245 245 190 264 276 275 262 263 271
256 264 282 372 313 294 287 387 433 425 387 375 378 380 380 376 368 364 367 366 369 411 408 325 342 367 371 305 278 261 250 246 244 283 287 260 253 267
302 273 275 343 297 292 439 430 440 356 354 353 351 348 347 349 350 350 348 421 404 392 429 511 552 329 364 377 317 288 266 251 246 246 240 270 260 252
255 293 322 316 290 337 440 437 420 403 396 395 383 383 404 414 406 401 411 408 401 404 419 480 498 527 400 349 371 320 291 271 253 250 241 239 263 267
264 275 358 299 300 426 396 375 370 368 366 362 365 370 382 401 422 418 406 401 398 422 444 466 495 507 514 437 338 396 326 291 273 261 252 248 240 252
299 280 323 289 301 385 368 356 348 347 354 351 353 361 372 381 410 414 411 413 419 419 432 435 443 480 501 512 503 337 381 330 290 278 264 251 249 243
286 328 303 290 395 373 350 336 342 333 333 336 347 362 367 384 392 391 400 425 435 449 456 462 453 466 467 472 479 503 332 367 370 288 276 263 252 246

GFSNE_2pvu_pres_129.txt.gz
Presure
295 286 298 295 383 364 351 322 326 321 306 292 279 269 259 252 258 199 216 133 152 118 131 142 167 153 146 142 143 155 162 162 181 124 134 140 190 112
275 266 281 286 308 330 353 347 356 346 299 317 292 275 271 262 265 275 156 135 246 162 217 179 115 122 118 229 156 173 181 177 178 226 159 152 151 144
140 131 131 166 282 197 283 327 327 311 347 334 311 209 292 283 275 278 232 272 187 138 133 125 140 147 161 121 139 145 125 128 132 133 156 132 222 148
270 285 271 261 125 124 126 124 126 318 319 281 324 290 278 283 265 273 270 247 257 299 287 123 262 139 144 151 184 133 131 152 131 141 127 130 134 222
167 284 275 271 276 265 280 278 272 273 215 248 308 314 281 268 275 266 280 280 276 268 268 277 282 127 125 129 166 137 133 154 132 132 156 158 140 204
298 257 287 209 320 297 260 298 284 275 257 265 186 156 208 223 279 273 264 264 243 267 269 261 191 169 199 200 218 187 226 264 284 207 175 259 145 169
283 160 261 293 282 304 266 317 341 286 285 270 251 263 268 265 220 121 148 273 268 239 283 277 274 283 282 260 140 142 147 248 279 268 254 144 130 258
266 277 274 291 285 295 253 350 296 358 332 289 294 269 270 261 263 259 295 292 285 222 269 271 240 240 257 247 147 145 261 245 252 267 263 252 257 251
252 264 282 296 307 280 315 313 332 294 295 378 394 290 283 277 271 270 274 267 255 265 273 270 274 257 254 257 180 187 231 246 266 266 243 244 244 244
252 268 268 287 305 290 315 277 337 286 336 363 382 369 371 309 288 284 274 265 264 257 272 276 267 263 264 265 260 259 264 261 265 285 311 327 331 288
265 254 271 278 289 298 287 301 293 318 371 389 385 355 351 347 328 286 281 278 242 216 261 259 262 270 134 155 133 265 268 274 273 293 282 363 355 344
272 268 264 280 288 292 298 269 286 310 382 370 368 363 341 330 331 346 352 289 280 265 274 157 264 268 264 265 265 253 266 274 310 280 302 325 320 318
268 261 252 280 284 295 288 275 278 296 364 349 345 348 353 330 325 314 324 336 359 350 303 304 292 268 260 251 262 276 304 292 247 263 300 307 307 300
255 281 264 284 283 300 281 278 313 320 349 327 324 327 326 342 339 328 320 313 315 329 342 429 362 286 292 285 249 259 264 261 256 252 247 314 297 298
253 277 285 278 281 296 276 271 288 376 325 306 299 297 299 304 309 319 331 335 317 309 314 320 333 403 447 338 288 257 267 267 261 257 251 249 301 307
262 243 286 275 280 287 268 311 377 328 300 293 327 449 439 432 337 324 308 307 315 325 333 322 323 322 333 424 377 309 292 280 265 260 257 242 301 295
266 253 280 278 298 295 274 283 347 304 349 468 467 466 369 364 367 375 382 393 408 360 314 310 322 326 325 322 352 420 344 297 281 273 259 248 242 290
276 265 276 277 290 272 283 358 307 309 404 395 391 391 391 393 395 387 354 359 366 380 392 398 402 371 310 322 323 339 452 352 303 285 265 252 246 283
268 271 276 288 289 263 274 327 300 388 371 366 362 360 361 365 375 381 393 406 446 431 415 366 372 377 381 388 310 326 331 483 351 308 281 259 251 246
266 277 271 287 271 307 327 301 305 362 354 345 342 340 346 366 371 377 393 404 426 423 420 417 416 416 426 429 450 524 336 330 448 343 305 270 257 251
275 270 286 275 267 273 338 293 370 353 341 334 326 335 358 374 386 388 401 414 403 403 413 431 440 450 450 458 518 515 525 505 336 368 328 289 263 252
272 272 282 267 301 295 306 291 362 340 336 330 330 351 370 391 410 415 421 433 442 434 423 425 439 461 460 454 483 493 516 534 406 351 375 317 276 260
265 289 281 273 274 352 288 302 351 342 328 328 338 347 363 377 371 367 372 375 374 377 380 385 387 392 400 407 421 445 459 483 518 318 359 357 301 266

GFSNE_2pvu_pres_132.txt.gz
Presure
153 276 258 268 286 274 294 309 384 145 319 336 349 358 297 281 269 261 252 128 119 144 142 222 151 107 214 142 192 137 130 132 132 131 149 142 153 155
217 131 171 131 133 134 135 208 227 318 370 303 325 336 340 298 282 270 266 256 248 248 246 134 238 235 126 216 156 192 123 140 202 139 142 149 142 140
232 267 271 275 294 248 179 183 233 133 188 209 345 311 312 325 319 286 277 267 263 257 249 243 141 251 227 109 188 130 138 204 137 202 151 168 174 152
270 271 265 266 279 297 300 280 155 288 267 283 255 125 125 137 304 298 295 290 273 265 266 252 254 270 271 256 137 232 205 126 205 130 126 168 212 161
251 270 271 262 279 266 286 291 291 292 337 265 271 291 298 330 336 174 256 287 285 275 271 260 267 257 255 178 203 212 128 122 123 221 131 129 142 139
245 251 265 270 258 271 261 224 142 224 285 304 208 304 292 285 303 340 287 267 272 277 271 268 257 258 263 261 229 156 254 116 207 176 126 139 137 135
259 233 264 264 269 260 280 271 283 280 194 178 295 264 313 297 290 284 308 355 313 143 255 278 272 256 263 257 260 261 178 275 268 167 230 207 150 148
251 270 240 268 256 270 261 273 295 287 292 313 325 285 367 312 345 298 303 275 309 318 304 298 121 119 114 104 108 113 256 281 288 285 291 143 249 240
275 258 263 259 268 257 274 264 265 292 290 285 299 317 284 385 317 297 327 294 295 293 281 286 273 275 280 272 271 264 281 273 264 254 281 166 171 213
273 251 257 262 272 269 264 278 258 265 291 295 313 309 277 267 279 337 295 303 336 290 287 292 275 258 259 275 276 280 275 269 266 256 284 210 274 258
271 257 259 251 273 270 260 282 269 267 302 291 314 320 287 279 320 376 388 333 327 362 305 288 285 268 291 288 254 262 268 274 292 288 265 260 258 246
279 262 255 272 271 267 267 275 272 265 294 290 311 306 291 314 332 370 369 369 379 360 350 351 294 158 155 277 264 294 257 258 265 268 267 257 274 267
270 270 254 268 270 269 270 269 252 290 289 293 307 286 308 371 353 347 339 344 350 376 342 323 345 328 302 286 281 293 263 266 280 208 132 140 236 256
276 267 270 277 281 276 257 269 256 286 290 306 289 283 355 335 323 318 317 319 322 326 347 369 332 328 333 355 301 297 291 294 268 256 213 185 261 265
274 277 284 280 278 275 260 283 276 289 293 290 277 315 327 318 444 488 491 446 317 312 313 322 350 353 329 319 317 346 433 312 288 285 280 271 269 267
278 275 265 275 275 266 278 281 280 281 299 284 291 329 319 398 397 398 405 415 411 391 409 339 317 318 342 342 321 311 320 372 441 333 289 278 274 270
284 276 276 283 270 273 285 279 282 299 285 289 333 307 373 365 363 365 372 383 389 398 394 381 391 383 322 311 333 329 317 316 334 402 380 333 313 293
287 287 278 274 274 287 281 282 279 286 296 342 306 359 353 345 345 346 376 387 391 393 395 409 430 407 392 403 330 310 333 329 321 323 347 389 334 304
287 281 268 272 290 283 276 275 299 299 279 311 299 351 345 341 353 388 406 410 405 401 403 432 433 437 442 422 391 403 411 307 328 329 327 331 385 335
277 287 270 289 280 273 277 290 278 279 327 294 359 340 337 353 362 368 381 426 436 440 445 463 457 430 443 432 425 422 442 399 410 310 322 330 335 386
289 269 278 278 283 278 280 298 295 315 300 292 339 331 337 353 358 362 369 374 375 376 387 396 402 408 418 435 458 474 483 494 524 465 415 318 329 351
291 277 287 284 280 278 291 280 270 323 289 344 336 332 336 352 358 363 358 345 346 350 375 391 394 393 401 401 409 419 432 453 480 506 544 400 331 329
287 288 280 278 271 284 279 291 306 299 286 337 331 327 332 352 334 329 328 322 319 323 333 337 347 364 377 396 404 417 425 436 449 466 482 529 496 331

GFSNE_2pvu_pres_135.txt.gz
Presure
266 256 256 136 259 282 283 176 277 295 294 282 318 350 340 297 305 396 268 256 250 261 243 231 221 237 224 161 215 199 172 223 212 207 125 166 159 224
251 266 264 279 263 260 284 273 182 226 222 133 217 272 326 315 294 307 309 268 259 258 243 252 240 240 229 206 228 214 127 134 133 132 139 176 150 127
240 191 274 263 279 266 258 277 283 270 286 283 292 275 169 128 144 282 302 200 271 258 263 254 245 238 237 234 127 117 218 217 224 148 150 145 137 147
244 249 266 274 262 283 262 250 280 276 266 285 272 300 301 317 313 335 296 141 282 267 265 261 254 255 254 248 238 231 227 225 184 127 220 176 220 139
248 255 266 270 296 284 273 265 276 277 276 275 278 292 222 269 261 306 320 344 286 219 128 272 265 258 254 248 247 247 236 237 239 228 131 203 189 205
243 259 273 278 280 286 275 265 254 269 270 283 273 300 299 300 160 212 275 307 320 337 301 276 277 272 267 259 250 243 243 244 242 239 242 126 211 196
247 259 284 279 268 291 279 273 261 271 281 265 277 285 286 303 310 294 294 274 295 302 286 310 316 317 273 280 271 263 252 243 242 244 251 277 245 211
246 252 294 272 269 291 279 274 268 270 280 284 276 278 279 301 301 313 301 288 295 278 321 292 342 297 302 311 295 274 269 270 269 261 145 169 282 154
240 238 250 267 305 290 249 277 266 263 260 282 286 271 292 287 298 319 300 324 345 299 300 343 296 344 307 285 284 299 246 284 279 269 276 271 263 266
247 251 313 287 299 297 278 275 275 261 259 283 280 274 281 290 267 311 304 321 337 331 359 359 297 385 307 311 291 279 274 267 210 141 120 183 109 175
257 320 313 343 281 296 284 275 272 271 268 280 282 289 285 280 269 302 309 330 336 345 295 323 325 326 309 305 304 276 278 277 269 270 265 268 265 262
376 374 267 337 313 287 277 265 271 268 276 286 285 282 271 300 265 305 324 331 327 306 360 311 304 351 382 330 302 321 317 271 288 283 278 273 271 259
382 281 341 313 298 283 277 270 268 283 281 278 280 276 291 301 300 314 329 321 361 346 340 341 348 363 376 375 330 349 304 309 289 334 321 304 295 293
296 335 309 291 255 268 269 277 282 270 275 288 287 284 299 294 301 321 315 343 334 401 429 445 386 329 341 355 360 359 335 351 321 296 282 283 283 261
328 310 296 286 279 280 277 272 287 281 287 279 279 296 290 293 319 329 332 388 381 379 384 397 415 425 333 322 334 348 372 311 347 310 285 320 270 285
318 296 272 276 293 287 276 270 290 277 274 281 299 286 292 317 301 328 325 369 369 370 402 412 406 402 412 418 322 317 338 364 366 346 355 325 295 314
295 280 282 284 277 275 280 288 278 274 285 289 283 288 312 295 327 317 361 358 379 388 438 452 432 421 413 413 416 389 328 320 346 370 358 320 359 295
284 280 273 274 275 294 278 282 289 278 287 287 286 298 292 326 305 357 357 371 374 379 390 403 449 446 441 440 438 444 376 397 342 322 348 364 340 302
284 272 283 289 283 272 271 299 279 290 288 279 293 297 331 302 350 348 357 377 375 369 375 387 393 400 432 447 497 424 445 458 382 405 352 325 359 348
290 290 285 281 288 285 291 279 288 288 278 291 306 297 308 345 341 345 369 343 341 342 344 346 353 390 402 402 407 419 442 457 476 406 394 406 321 337
293 283 291 291 277 294 281 287 289 275 289 268 277 320 293 346 333 359 337 330 329 329 330 334 337 344 352 374 396 414 431 444 436 445 490 379 411 350
294 292 298 304 300 291 287 286 272 286 265 296 313 297 338 337 349 331 319 325 320 320 327 328 336 334 338 350 359 367 378 397 436 440 430 456 490 393
306 312 297 294 279 289 285 276 280 291 279 269 319 288 333 328 352 316 321 314 314 328 317 311 310 310 319 319 328 342 354 375 381 391 443 447 447 472

GFSNE_2pvu_pres_138.txt.gz
Presure
226 234 234 227 231 247 256 264 293 280 223 259 281 270 298 296 297 289 325 298 261 265 275 300 344 239 226 237 225 229 225 209 144 142 182 172 139 137
223 224 226 226 240 246 245 258 277 288 303 274 256 286 209 307 286 316 351 281 282 255 266 288 340 266 242 251 244 230 262 159 212 207 188 165 179 131
230 227 228 244 236 235 247 255 264 298 286 295 264 262 289 276 223 301 217 334 279 260 264 248 279 278 254 242 239 251 236 254 215 153 124 195 156 205
233 219 228 232 233 237 248 245 252 264 281 296 286 262 273 286 290 302 285 262 135 139 230 254 248 259 259 252 244 240 231 242 270 218 216 202 132 186
241 244 229 223 242 245 241 253 243 249 266 301 290 281 258 277 283 277 316 322 322 330 271 257 260 160 272 253 254 256 242 234 224 235 231 231 235 229
217 233 226 232 256 251 249 250 251 253 279 289 292 282 277 265 289 282 283 304 314 263 336 319 246 238 258 266 251 256 260 246 250 240 245 246 232 226
234 243 243 276 253 252 256 280 254 293 295 288 293 285 280 267 273 293 288 280 286 311 272 337 312 276 271 250 253 159 267 246 265 252 238 228 229 235
273 298 265 282 257 265 277 256 272 331 300 310 282 283 282 265 267 283 291 285 271 265 277 295 263 332 297 290 274 264 271 264 252 233 241 242 254 266
255 264 277 260 261 311 253 257 359 337 267 299 296 287 279 277 274 264 284 287 286 277 263 258 322 308 268 327 322 313 292 171 273 265 259 254 243 241
324 250 304 303 302 297 304 273 348 317 304 295 298 290 277 280 274 273 282 294 291 293 293 284 286 284 316 304 292 272 325 315 304 300 276 263 252 254
246 358 344 262 321 311 322 360 365 344 318 305 295 279 271 274 273 281 285 288 288 291 292 319 304 265 315 340 361 367 318 288 293 303 297 289 298 275
353 335 324 296 378 391 367 358 344 330 303 294 279 280 275 275 290 282 280 298 293 288 316 308 313 280 340 352 401 405 415 352 335 321 287 291 303 279
387 380 380 368 377 335 351 324 311 301 293 283 276 275 280 282 281 290 285 284 299 305 305 318 333 333 328 359 361 369 379 334 342 418 286 316 341 305
378 369 370 366 356 329 321 302 291 283 281 277 278 280 270 289 291 274 290 302 294 301 329 326 327 341 407 410 401 409 408 344 317 319 370 324 306 342
358 356 345 333 329 327 296 282 279 272 284 293 278 271 291 282 280 294 298 296 312 312 349 336 390 407 413 453 491 442 408 424 364 357 366 367 298 337
340 284 315 314 306 302 286 280 281 288 278 270 291 291 287 297 290 294 290 310 301 338 333 415 412 408 405 416 467 454 437 412 414 438 346 361 376 293
327 315 309 306 293 287 281 280 281 280 282 294 272 285 295 289 289 289 301 297 327 329 402 371 364 364 382 410 420 465 489 449 432 421 432 336 349 367
317 306 300 293 299 280 280 281 282 288 276 288 299 288 283 285 285 294 293 310 317 391 360 351 347 348 360 365 400 421 423 440 472 470 443 428 337 338
311 301 291 283 286 283 284 291 294 290 287 301 290 281 282 279 290 287 312 302 381 351 343 346 336 342 350 353 364 380 405 427 427 440 452 459 467 365
322 299 304 292 287 285 292 289 295 300 303 292 280 282 275 293 291 307 301 351 357 335 328 332 333 322 326 328 333 346 366 373 398 428 434 452 459 456
278 293 302 300 294 291 291 301 302 302 291 282 283 276 296 293 275 305 338 356 340 329 321 330 320 315 315 319 324 329 337 343 359 374 389 422 452 469
284 276 305 312 308 309 306 318 303 292 281 286 275 283 282 277 313 290 343 344 327 319 318 316 306 307 312 313 314 317 331 335 334 342 360 383 395 417
290 284 284 332 317 308 296 299 291 283 285 271 273 300 289 296 297 321 336 336 331 311 323 302 308 302 303 304 305 301 316 318 329 345 345 354 377 391

GFSNE_2pvu_pres_141.txt.gz
Presure
209 229 217 215 224 218 223 241 243 236 239 257 247 262 264 278 277 278 294 316 267 290 287 297 282 295 301 297 247 221 224 214 212 203 204 202 175 202
214 208 206 211 219 223 219 242 237 233 227 234 257 254 265 265 281 297 211 306 315 301 297 293 276 283 306 286 302 233 234 224 222 211 213 236 234 206
221 217 224 227 225 220 213 274 250 255 243 234 251 256 262 258 267 298 291 287 293 301 284 262 302 281 284 275 270 241 225 225 216 225 222 219 182 221
210 206 207 226 230 239 267 292 290 250 249 281 267 259 253 279 288 288 296 272 284 292 334 150 353 299 281 271 289 292 229 203 229 224 213 222 179 126
212 215 219 234 247 251 266 280 233 280 257 270 283 274 265 290 263 280 297 289 257 285 289 307 135 218 290 291 273 283 255 225 220 228 226 209 210 210
192 220 240 225 252 250 255 245 263 264 263 264 273 264 281 255 296 304 298 290 280 277 280 272 286 291 318 200 177 225 287 255 226 238 225 225 214 219
245 242 235 258 256 290 356 353 275 258 262 246 256 297 264 256 325 306 288 286 283 264 286 282 260 274 314 294 274 253 135 298 258 252 237 238 226 224
229 238 241 306 348 390 379 278 366 304 354 352 286 305 254 324 327 310 296 282 286 277 254 288 290 283 300 308 269 268 275 257 189 267 246 241 243 229
261 249 277 331 308 377 375 369 359 342 341 262 272 315 309 354 357 290 294 284 229 281 275 262 285 295 265 282 313 274 259 273 258 245 171 265 255 208
264 316 331 350 388 373 314 351 369 362 338 281 371 297 333 328 321 306 286 295 286 279 286 284 264 285 295 272 306 283 295 266 271 266 271 260 236 265
305 351 296 380 366 417 398 398 397 398 388 360 376 354 338 283 320 295 290 292 285 274 276 271 279 288 295 304 269 270 285 328 257 263 271 280 267 259
393 272 385 364 404 396 386 385 375 372 369 375 311 364 326 317 299 296 287 279 278 275 278 286 294 284 287 304 309 314 286 284 318 353 316 284 294 274
347 341 382 396 380 374 369 352 355 339 331 326 320 309 311 297 297 286 275 275 273 279 277 293 297 301 289 297 316 326 332 338 306 313 276 298 342 305
338 367 377 350 269 356 352 338 343 320 320 307 295 287 283 284 277 274 271 275 285 278 295 290 291 302 310 309 316 337 363 376 384 389 399 362 374 297
320 174 336 231 144 329 332 329 322 319 302 286 283 276 271 275 279 284 276 290 299 291 300 302 302 303 321 335 353 384 412 421 463 476 507 505 481 447
351 341 328 311 340 324 320 308 295 299 285 282 279 276 276 281 280 287 296 279 304 299 296 297 316 305 345 339 386 382 381 388 418 454 487 482 472 459
344 331 317 329 318 319 305 301 294 283 286 283 279 279 281 282 281 288 303 296 291 290 301 310 321 327 377 365 363 369 373 374 391 424 448 458 483 467
331 322 311 306 307 318 302 297 283 295 292 282 278 286 298 293 298 302 293 289 284 297 299 297 316 376 351 349 355 343 347 346 362 380 398 443 454 473
323 316 305 295 294 323 309 300 294 290 288 281 291 289 291 309 301 288 290 280 306 296 288 312 370 347 346 332 328 340 333 333 334 348 364 378 400 447
265 312 300 293 313 286 294 285 300 301 287 298 296 292 304 296 285 285 279 294 296 282 311 319 349 338 342 321 317 321 330 331 327 324 331 350 368 386
198 311 150 278 282 279 275 288 317 302 297 302 308 311 299 280 286 276 283 297 282 316 291 351 337 331 330 316 303 303 309 318 316 319 321 329 354 364
253 317 281 291 288 267 289 281 310 305 306 308 299 297 285 286 276 277 287 286 315 294 343 335 337 322 330 317 301 301 304 306 307 307 321 325 324 339
266 320 300 293 299 271 291 280 314 335 314 298 299 294 286 275 280 280 296 305 296 322 335 338 335 318 325 315 304 302 302 299 301 303 309 311 317 321

GFSNE_2pvu_pres_144.txt.gz
Presure
211 223 198 217 194 232 226 218 226 219 230 258 257 247 266 248 290 255 251 274 279 271 310 292 298 313 300 341 293 375 246 229 223 216 225 234 225 209
194 200 224 214 225 203 233 237 234 217 205 227 233 252 245 277 307 244 275 279 270 277 275 312 279 293 294 325 296 243 249 236 225 218 213 205 202 218
223 182 239 230 193 224 232 209 245 251 252 262 276 280 254 264 253 252 284 293 275 272 271 136 227 299 318 285 306 288 299 247 234 224 208 209 214 218
222 195 236 241 194 232 218 234 240 241 246 263 272 309 368 342 327 260 266 278 299 283 294 282 305 140 303 324 282 304 293 337 246 228 218 214 211 203
217 196 234 210 239 248 243 235 238 252 244 304 368 395 385 372 341 308 263 279 269 286 292 300 307 294 300 300 294 286 303 305 214 239 222 217 215 216
208 217 205 239 228 237 236 236 239 250 290 399 397 393 391 311 334 258 306 276 275 274 290 273 313 301 297 299 292 324 291 294 261 238 219 227 220 211
203 237 251 235 218 239 242 232 248 291 314 285 396 382 374 357 338 311 347 341 260 292 256 311 304 301 298 302 300 255 333 342 289 230 229 224 222 200
222 222 237 246 275 269 256 242 297 319 295 384 368 364 365 356 344 345 343 336 281 276 261 317 297 292 293 283 295 294 276 323 310 238 137 136 177 225
236 226 244 240 277 262 305 280 318 329 380 379 373 418 363 347 330 331 322 266 312 304 320 316 299 290 286 284 269 286 292 256 322 305 239 224 215 149
226 238 249 233 302 310 316 336 357 378 364 406 392 390 403 393 380 332 335 271 345 318 324 318 300 290 283 288 284 281 291 293 265 306 331 269 255 262
255 264 294 310 372 322 348 372 371 367 392 391 389 384 388 374 377 376 364 349 328 334 334 319 302 292 286 285 287 288 269 302 284 276 308 294 281 254
246 295 322 360 314 318 347 367 363 350 373 363 362 360 366 367 368 374 336 333 329 329 302 290 290 280 293 290 280 284 291 291 293 280 293 312 298 285
330 359 317 355 347 340 347 362 369 375 332 351 295 339 330 327 327 334 327 313 304 303 296 292 294 293 291 286 284 278 278 289 296 280 302 305 292 312
327 327 328 341 310 331 361 361 357 264 297 340 346 328 317 311 305 305 304 295 293 292 286 281 278 275 273 283 276 287 294 294 316 321 326 325 331 309
348 337 350 327 336 333 349 353 322 145 328 326 328 321 306 299 290 285 279 278 273 270 271 276 275 277 278 285 292 303 307 319 330 329 336 347 350 364
302 300 324 335 332 355 339 347 347 334 322 306 309 298 290 289 280 281 279 275 279 282 280 280 280 286 286 289 309 311 313 315 348 360 364 386 421 434
330 324 325 328 342 320 322 316 339 323 318 306 299 291 289 285 279 275 275 281 283 285 297 310 309 307 303 301 297 314 328 343 382 390 373 371 382 395
338 327 332 327 312 323 313 304 315 314 314 304 298 288 294 293 283 284 281 294 294 303 317 312 302 301 291 308 309 332 326 370 376 356 349 348 349 366
343 336 326 318 306 314 275 306 296 203 325 306 304 297 298 292 288 303 303 288 307 305 301 296 293 289 310 302 323 320 356 360 349 336 337 341 333 336
347 337 335 312 309 294 261 273 155 287 280 274 271 306 292 301 305 298 314 312 300 293 293 293 288 306 303 318 307 346 348 341 334 326 319 320 327 323
340 344 330 308 305 289 232 304 290 292 275 294 278 278 305 313 311 313 302 299 290 288 286 287 308 304 312 300 346 339 338 338 325 318 317 310 314 317
340 347 323 305 286 287 262 309 290 292 271 284 281 279 315 309 307 299 303 288 292 280 285 303 311 305 329 343 364 347 326 331 325 317 313 321 315 310
321 322 320 311 267 285 270 315 292 295 267 303 280 321 322 314 304 293 291 287 278 287 301 306 301 293 335 330 340 346 330 328 327 314 312 314 311 314